Philadelphia, PA

10:52 PM EST on December 09, 2016 (GMT -0500)
Northeast Philadelphia

Weather History for KPNE - May, 2013

Change the Weather History Date:

Saturday, May 18, 2013

  Actual Average Record
Temperature  
Mean Temperature 62 °F -  
Max Temperature 68 °F 69 °F 84 °F (1998)
Min Temperature 57 °F 50 °F 39 °F (2003)
Degree Days  
Heating Degree Days 2    
Growing Degree Days 12 (Base 50)    
Moisture  
Dew Point 51 °F    
Average Humidity 73    
Maximum Humidity 94    
Minimum Humidity 52    
Precipitation  
Precipitation 0.11 in - - ()
Sea Level Pressure  
Sea Level Pressure 30.28 in    
Wind  
Wind Speed 4 mph (SE)    
Max Wind Speed 12 mph    
Max Gust Speed 16 mph    
Visibility 9 miles    
Events Rain    
Averages and records for this station are not official NWS values.
T = Trace of Precipitation, MM = Missing Value Source: NWS Daily Summary

Daily Weather History Graph

Daily Weather History Graph

Search for Another Location

Airport or City:

Trip Planner

Search our weather history database for the weather conditions in past years. The results will help you decide how hot, cold, wet, or windy it might be!

Date:

Astronomy

May. 18, 2013 Rise Set
Actual Time 5:41 AM EDT 8:11 PM EDT
Civil Twilight 5:10 AM EDT 8:42 PM EDT
Nautical Twilight 4:32 AM EDT 9:21 PM EDT
Astronomical Twilight 3:49 AM EDT 10:04 PM EDT
Moon 1:12 PM EDT (5/18) 1:33 AM EDT (5/18)
Length of Visible Light 15h 32m
Length of Day
14h 29m
First Quarter, 55% of the Moon is Illuminated
May 18
First Quarter
May 25
Full
May 31
Last Quarter
Jun 8
New
Jun 16
First Quarter

Hourly Weather History & Observations

Time (EDT) Temp. Dew Point Humidity Pressure Visibility Wind Dir Wind Speed Gust Speed Precip Events Conditions
12:54 AM 59.0 °F 42.1 °F 53% 30.21 in 10.0 mi Calm Calm - N/A   Scattered Clouds
1:54 AM 59.0 °F 44.1 °F 58% 30.22 in 10.0 mi Calm Calm - N/A   Overcast
2:54 AM 59.0 °F 44.1 °F 58% 30.22 in 10.0 mi Calm Calm - N/A   Overcast
3:54 AM 57.9 °F 45.0 °F 62% 30.24 in 10.0 mi Calm Calm - N/A   Overcast
4:54 AM 57.0 °F 48.0 °F 72% 30.25 in 10.0 mi Calm Calm - N/A   Overcast
5:54 AM 57.0 °F 48.0 °F 72% 30.25 in 10.0 mi Calm Calm - 0.00 in   Overcast
6:54 AM 57.9 °F 48.0 °F 70% 30.27 in 10.0 mi Calm Calm - N/A   Overcast
7:54 AM 59.0 °F 48.0 °F 67% 30.29 in 10.0 mi ESE 5.8 mph - N/A   Overcast
8:54 AM 61.0 °F 48.0 °F 62% 30.30 in 10.0 mi SE 4.6 mph - N/A   Scattered Clouds
9:54 AM 61.0 °F 50.0 °F 67% 30.30 in 10.0 mi SE 6.9 mph - N/A   Overcast
10:54 AM 63.0 °F 51.1 °F 65% 30.30 in 10.0 mi SE 6.9 mph - N/A   Overcast
11:54 AM 64.0 °F 50.0 °F 60% 30.30 in 10.0 mi SSE 5.8 mph - N/A   Overcast
12:54 PM 64.9 °F 52.0 °F 63% 30.28 in 10.0 mi SE 8.1 mph - 0.00 in   Overcast
1:15 PM 66.2 °F 53.6 °F 64% 30.28 in 10.0 mi SE 6.9 mph - 0.00 in   Overcast
1:25 PM 66.2 °F 51.8 °F 60% 30.28 in 10.0 mi SE 10.4 mph - 0.00 in   Overcast
1:54 PM 68.0 °F 51.1 °F 55% 30.27 in 10.0 mi SE 9.2 mph - 0.00 in   Overcast
2:54 PM 66.2 °F 48.2 °F 52% 30.27 in 10.0 mi SSE 10.4 mph 16.1 mph N/A   Mostly Cloudy
3:54 PM 64.0 °F 51.1 °F 63% 30.28 in 10.0 mi SE 9.2 mph - 0.00 in Rain Light Rain
4:54 PM 61.0 °F 53.1 °F 75% 30.29 in 10.0 mi SE 11.5 mph - 0.00 in Rain Light Rain
5:54 PM 59.0 °F 55.4 °F 88% 30.29 in 10.0 mi ESE 8.1 mph - N/A Rain Light Rain
6:54 PM 59.0 °F 55.0 °F 87% 30.29 in 10.0 mi ESE 8.1 mph - 0.00 in   Overcast
7:54 PM 59.0 °F 55.0 °F 87% 30.29 in 10.0 mi ESE 8.1 mph - 0.00 in Rain Light Rain
8:54 PM 57.9 °F 55.0 °F 90% 30.29 in 10.0 mi SE 8.1 mph - 0.01 in Rain Light Rain
9:54 PM 57.9 °F 54.0 °F 87% 30.31 in 9.0 mi SE 10.4 mph - 0.00 in Rain Light Rain
10:30 PM 57.2 °F 55.4 °F 94% 30.30 in 4.0 mi SE 5.8 mph - 0.04 in Rain Rain
10:37 PM 57.2 °F 55.4 °F 94% 30.30 in 3.0 mi SE 6.9 mph - 0.06 in Rain Rain
10:54 PM 57.0 °F 55.0 °F 93% 30.30 in 5.0 mi ESE 8.1 mph - 0.08 in Rain Light Rain
10:57 PM 57.2 °F 55.4 °F 94% 30.30 in 6.0 mi SE 5.8 mph - 0.00 in Rain Light Rain
11:54 PM 57.0 °F 55.0 °F 93% 30.29 in 7.0 mi ESE 8.1 mph - 0.02 in Rain Light Rain